sat.trackr.live / text

‹ back to catalog

ONEWEB-0717

NORAD 55178 · 2023-004AQ

PAYLOAD ACTIVE UNKNOWN

§ Identity

Operator
Country
UK
Launch date
2023-01-10
Launch site
AFETR
Launch vehicle
Mass (kg)
RCS (m²)

Purposes: comms

External: N2YO · Heavens-Above · Gunter

§ Orbital elements

Epoch: 2026-05-25T00:28:15.178368Z

Period
109.29 min
Inclination
87.9164°
Eccentricity
0.0002192
Mean motion
13.17646834 rev/d
Perigee alt
1,192.1 km
Apogee alt
1,195.4 km
Semi-major
7,571.9 km
B*
-1.4625e-3
RAAN
10.4612°
Arg perigee
99.6285°
Mean anomaly
260.5094°
Rev number
16,458

§ Raw data

ONEWEB-07171 55178U 23004AQ  26145.01962012 -.00000555  00000+0 -14625-2 0  99902 55178  87.9164  10.4612 0002192  99.6285 260.5094 13.17646834164583

JSON: /api/v1/satellites/55178 · /tle

For live sub-satellite position, see the globe view (requires WebGL).

§ Visibility from observer

Set your observer location to see the next 7 days of passes ≥ 10°. The values pass through the URL so the page stays shareable.

No JS? Fill the form by hand. The geolocation button needs JavaScript.